Terminal Aerodrome Forecast
Issued by NWS Greer, SC

Home | Current Version | Previous Version | Text Only | Print | Product List | Glossary On
Versions: 1 2 3 4 5 6 7 8 9 10 11 12 13 14 15 16 17 18 19 20 21 22 23 24 25 26 27 28 29 30 31 32 33 34 35 36 37 38 39 40 41 42 43 44 45 46 47 48 49 50
000
FTUS42 KGSP 270540
TAFCLT
TAF
KCLT 270540Z 2706/2806 16003KT P6SM BKN090
     FM271400 28007KT P6SM BKN080
     FM271600 30010KT P6SM SCT080
     FM280300 33006KT P6SM FEW250=

USA.gov is the U.S. government's official web portal to all federal, state and local government web resources and services.